Year,Month,Day,Hour,Minute,Value (Times are PST for temperature in C)
2020,05,27,00,00,10.30
2020,05,27,00,01,10.20
2020,05,27,00,02,10.20
2020,05,27,00,03,10.20
2020,05,27,00,04,10.20
2020,05,27,00,05,10.20
2020,05,27,00,06,10.20
2020,05,27,00,07,10.20
2020,05,27,00,08,10.20
2020,05,27,00,09,10.10
2020,05,27,00,10,10.10
2020,05,27,00,11,10.10
2020,05,27,00,12,10.10
2020,05,27,00,13,10.10
2020,05,27,00,14,10.10
2020,05,27,00,15,10.10
2020,05,27,00,16,10.10
2020,05,27,00,17,10.00
2020,05,27,00,18,10.00
2020,05,27,00,19,10.00
2020,05,27,00,20,10.00
2020,05,27,00,21,9.90
2020,05,27,00,22,9.90
2020,05,27,00,23,9.90
2020,05,27,00,24,9.90
2020,05,27,00,25,9.90
2020,05,27,00,26,9.90
2020,05,27,00,27,9.80
2020,05,27,00,28,9.80
2020,05,27,00,29,9.80
2020,05,27,00,30,9.80
2020,05,27,00,31,9.80
2020,05,27,00,32,9.70
2020,05,27,00,33,9.70
2020,05,27,00,34,9.70
2020,05,27,00,35,9.70
2020,05,27,00,36,9.70
2020,05,27,00,37,9.70
2020,05,27,00,38,9.70
2020,05,27,00,39,9.70
2020,05,27,00,40,9.70
2020,05,27,00,41,9.70
2020,05,27,00,42,9.60
2020,05,27,00,43,9.60
2020,05,27,00,44,9.60
2020,05,27,00,45,9.60
2020,05,27,00,46,9.60
2020,05,27,00,47,9.60
2020,05,27,00,48,9.60
2020,05,27,00,49,9.50
2020,05,27,00,50,9.50
2020,05,27,00,51,9.50
2020,05,27,00,52,9.50
2020,05,27,00,53,9.50
2020,05,27,00,54,9.40
2020,05,27,00,55,9.40
2020,05,27,00,56,9.40
2020,05,27,00,57,9.40
2020,05,27,00,58,9.40
2020,05,27,00,59,9.40
2020,05,27,01,00,9.30
2020,05,27,01,01,9.30
2020,05,27,01,02,9.30
2020,05,27,01,03,9.30
2020,05,27,01,04,9.30
2020,05,27,01,05,9.30
2020,05,27,01,06,9.20
2020,05,27,01,07,9.20
2020,05,27,01,08,9.20
2020,05,27,01,09,9.20
2020,05,27,01,10,9.20
2020,05,27,01,11,9.20
2020,05,27,01,12,9.20
2020,05,27,01,13,9.10
2020,05,27,01,14,9.10
2020,05,27,01,15,9.10
2020,05,27,01,16,9.10
2020,05,27,01,17,9.10
2020,05,27,01,18,9.10
2020,05,27,01,19,9.00
2020,05,27,01,20,9.10
2020,05,27,01,21,9.00
2020,05,27,01,22,9.00
2020,05,27,01,23,9.00
2020,05,27,01,24,8.90
2020,05,27,01,25,8.90
2020,05,27,01,26,8.90
2020,05,27,01,27,8.90
2020,05,27,01,28,8.90
2020,05,27,01,29,8.90
2020,05,27,01,30,8.90
2020,05,27,01,31,8.80
2020,05,27,01,32,8.80
2020,05,27,01,33,8.80
2020,05,27,01,34,8.80
2020,05,27,01,35,8.80
2020,05,27,01,36,8.80
2020,05,27,01,37,8.80
2020,05,27,01,38,8.80
2020,05,27,01,39,8.80
2020,05,27,01,40,8.70
2020,05,27,01,41,8.70
2020,05,27,01,42,8.70
2020,05,27,01,43,8.70
2020,05,27,01,44,8.70
2020,05,27,01,45,8.70
2020,05,27,01,46,8.70
2020,05,27,01,47,8.60
2020,05,27,01,48,8.60
2020,05,27,01,49,8.60
2020,05,27,01,50,8.60
2020,05,27,01,51,8.60
2020,05,27,01,52,8.60
2020,05,27,01,53,8.60
2020,05,27,01,54,8.60
2020,05,27,01,55,8.50
2020,05,27,01,56,8.60
2020,05,27,01,57,8.60
2020,05,27,01,58,8.60
2020,05,27,01,59,8.60
2020,05,27,02,00,8.60
2020,05,27,02,01,8.60
2020,05,27,02,02,8.60
2020,05,27,02,03,8.60
2020,05,27,02,04,8.60
2020,05,27,02,05,8.60
2020,05,27,02,06,8.60
2020,05,27,02,07,8.60
2020,05,27,02,08,8.60
2020,05,27,02,09,8.60
2020,05,27,02,10,8.60
2020,05,27,02,11,8.60
2020,05,27,02,12,8.60
2020,05,27,02,13,8.60
2020,05,27,02,14,8.60
2020,05,27,02,15,8.60
2020,05,27,02,16,8.60
2020,05,27,02,17,8.60
2020,05,27,02,18,8.60
2020,05,27,02,19,8.50
2020,05,27,02,20,8.50
2020,05,27,02,21,8.50
2020,05,27,02,22,8.50
2020,05,27,02,23,8.50
2020,05,27,02,24,8.50
2020,05,27,02,25,8.50
2020,05,27,02,26,8.50
2020,05,27,02,27,8.50
2020,05,27,02,28,8.40
2020,05,27,02,29,8.40
2020,05,27,02,30,8.40
2020,05,27,02,31,8.40
2020,05,27,02,32,8.40
2020,05,27,02,33,8.40
2020,05,27,02,34,8.30
2020,05,27,02,35,8.30
2020,05,27,02,36,8.30
2020,05,27,02,37,8.30
2020,05,27,02,38,8.30
2020,05,27,02,39,8.30
2020,05,27,02,40,8.30
2020,05,27,02,41,8.20
2020,05,27,02,42,8.20
2020,05,27,02,43,8.20
2020,05,27,02,44,8.20
2020,05,27,02,45,8.20
2020,05,27,02,46,8.20
2020,05,27,02,47,8.10
2020,05,27,02,48,8.10
2020,05,27,02,49,8.10
2020,05,27,02,50,8.10
2020,05,27,02,51,8.10
2020,05,27,02,52,8.10
2020,05,27,02,53,8.00
2020,05,27,02,54,8.00
2020,05,27,02,55,8.00
2020,05,27,02,56,8.00
2020,05,27,02,57,8.00
2020,05,27,02,58,8.00
2020,05,27,02,59,8.00
2020,05,27,03,00,7.90
2020,05,27,03,01,7.90
2020,05,27,03,02,7.90
2020,05,27,03,03,7.90
2020,05,27,03,04,7.90
2020,05,27,03,05,7.90
2020,05,27,03,06,7.90
2020,05,27,03,07,7.90
2020,05,27,03,08,7.80
2020,05,27,03,09,7.80
2020,05,27,03,10,7.80
2020,05,27,03,11,7.80
2020,05,27,03,12,7.80
2020,05,27,03,13,7.80
2020,05,27,03,14,7.70
2020,05,27,03,15,7.70
2020,05,27,03,16,7.70
2020,05,27,03,17,7.70
2020,05,27,03,18,7.70
2020,05,27,03,19,7.70
2020,05,27,03,20,7.60
2020,05,27,03,21,7.60
2020,05,27,03,22,7.60
2020,05,27,03,23,7.60
2020,05,27,03,24,7.60
2020,05,27,03,25,7.60
2020,05,27,03,26,7.60
2020,05,27,03,27,7.60
2020,05,27,03,28,7.60
2020,05,27,03,29,7.60
2020,05,27,03,30,7.60
2020,05,27,03,31,7.60
2020,05,27,03,32,7.60
2020,05,27,03,33,7.60
2020,05,27,03,34,7.60
2020,05,27,03,35,7.60
2020,05,27,03,36,7.60
2020,05,27,03,37,7.60
2020,05,27,03,38,7.50
2020,05,27,03,39,7.50
2020,05,27,03,40,7.50
2020,05,27,03,41,7.50
2020,05,27,03,42,7.50
2020,05,27,03,43,7.50
2020,05,27,03,44,7.50
2020,05,27,03,45,7.50
2020,05,27,03,46,7.60
2020,05,27,03,47,7.60
2020,05,27,03,48,7.60
2020,05,27,03,49,7.60
2020,05,27,03,50,7.60
2020,05,27,03,51,7.60
2020,05,27,03,52,7.60
2020,05,27,03,53,7.60
2020,05,27,03,54,7.60
2020,05,27,03,55,7.60
2020,05,27,03,56,7.60
2020,05,27,03,57,7.60
2020,05,27,03,58,7.60
2020,05,27,03,59,7.60
2020,05,27,04,00,7.60
2020,05,27,04,01,7.60
2020,05,27,04,02,7.60
2020,05,27,04,03,7.60
2020,05,27,04,04,7.60
2020,05,27,04,05,7.60
2020,05,27,04,06,7.60
2020,05,27,04,07,7.60
2020,05,27,04,08,7.60
2020,05,27,04,09,7.60
2020,05,27,04,10,7.60
2020,05,27,04,11,7.60
2020,05,27,04,12,7.60
2020,05,27,04,13,7.60
2020,05,27,04,14,7.60
2020,05,27,04,15,7.60
2020,05,27,04,16,7.60
2020,05,27,04,17,7.60
2020,05,27,04,18,7.60
2020,05,27,04,19,7.60
2020,05,27,04,20,7.60
2020,05,27,04,21,7.70
2020,05,27,04,22,7.70
2020,05,27,04,23,7.70
2020,05,27,04,24,7.70
2020,05,27,04,25,7.70
2020,05,27,04,26,7.70
2020,05,27,04,27,7.70
2020,05,27,04,28,7.70
2020,05,27,04,29,7.70
2020,05,27,04,30,7.70
2020,05,27,04,31,7.70
2020,05,27,04,32,7.70
2020,05,27,04,33,7.80
2020,05,27,04,34,7.80
2020,05,27,04,35,7.70
2020,05,27,04,36,7.70
2020,05,27,04,37,7.70
2020,05,27,04,38,7.70
2020,05,27,04,39,7.70
2020,05,27,04,40,7.70
2020,05,27,04,41,7.70
2020,05,27,04,42,7.70
2020,05,27,04,43,7.70
2020,05,27,04,44,7.70
2020,05,27,04,45,7.70
2020,05,27,04,46,7.60
2020,05,27,04,47,7.60
2020,05,27,04,48,7.60
2020,05,27,04,49,7.60
2020,05,27,04,50,7.60
2020,05,27,04,51,7.60
2020,05,27,04,52,7.60
2020,05,27,04,53,7.60
2020,05,27,04,54,7.60
2020,05,27,04,55,7.60
2020,05,27,04,56,7.60
2020,05,27,04,57,7.70
2020,05,27,04,58,7.70
2020,05,27,04,59,7.70
2020,05,27,05,00,7.70
2020,05,27,05,01,7.70
2020,05,27,05,02,7.70
2020,05,27,05,03,7.70
2020,05,27,05,04,7.70
2020,05,27,05,05,7.70
2020,05,27,05,06,7.80
2020,05,27,05,07,7.80
2020,05,27,05,08,7.80
2020,05,27,05,09,7.80
2020,05,27,05,10,7.80
2020,05,27,05,11,7.80
2020,05,27,05,12,7.80
2020,05,27,05,13,7.80
2020,05,27,05,14,7.80
2020,05,27,05,15,7.80
2020,05,27,05,16,7.80
2020,05,27,05,17,7.80
2020,05,27,05,18,7.80
2020,05,27,05,19,7.80
2020,05,27,05,20,7.80
2020,05,27,05,21,7.80
2020,05,27,05,22,7.90
2020,05,27,05,23,7.90
2020,05,27,05,24,7.90
2020,05,27,05,25,7.90
2020,05,27,05,26,7.90
2020,05,27,05,27,7.90
2020,05,27,05,28,7.90
2020,05,27,05,29,7.90
2020,05,27,05,30,8.00
2020,05,27,05,31,8.00
2020,05,27,05,32,8.00
2020,05,27,05,33,8.00
2020,05,27,05,34,8.00
2020,05,27,05,35,8.00
2020,05,27,05,36,8.00
2020,05,27,05,37,8.00
2020,05,27,05,38,8.00
2020,05,27,05,39,8.00
2020,05,27,05,40,8.10
2020,05,27,05,41,8.10
2020,05,27,05,42,8.10
2020,05,27,05,43,8.10
2020,05,27,05,44,8.10
2020,05,27,05,45,8.10
2020,05,27,05,46,8.20
2020,05,27,05,47,8.20
2020,05,27,05,48,8.20
2020,05,27,05,49,8.20
2020,05,27,05,50,8.20
2020,05,27,05,51,8.20
2020,05,27,05,52,8.20
2020,05,27,05,53,8.20
2020,05,27,05,54,8.30
2020,05,27,05,55,8.30
2020,05,27,05,56,8.30
2020,05,27,05,57,8.30
2020,05,27,05,58,8.30
2020,05,27,05,59,8.40
2020,05,27,06,00,8.40
2020,05,27,06,01,8.40
2020,05,27,06,02,8.40
2020,05,27,06,03,8.40
2020,05,27,06,04,8.40
2020,05,27,06,05,8.50
2020,05,27,06,06,8.50
2020,05,27,06,07,8.50
2020,05,27,06,08,8.50
2020,05,27,06,09,8.50
2020,05,27,06,10,8.50
2020,05,27,06,11,8.50
2020,05,27,06,12,8.60
2020,05,27,06,13,8.60
2020,05,27,06,14,8.60
2020,05,27,06,15,8.60
2020,05,27,06,16,8.50
2020,05,27,06,17,8.50
2020,05,27,06,18,8.50
2020,05,27,06,19,8.50
2020,05,27,06,20,8.50
2020,05,27,06,21,8.50
2020,05,27,06,22,8.50
2020,05,27,06,23,8.50
2020,05,27,06,24,8.50
2020,05,27,06,25,8.50
2020,05,27,06,26,8.50
2020,05,27,06,27,8.50
2020,05,27,06,28,8.50
2020,05,27,06,29,8.50
2020,05,27,06,30,8.50
2020,05,27,06,31,8.50
2020,05,27,06,32,8.50
2020,05,27,06,33,8.50
2020,05,27,06,34,8.50
2020,05,27,06,35,8.60
2020,05,27,06,36,8.60
2020,05,27,06,37,8.60
2020,05,27,06,38,8.60
2020,05,27,06,39,8.60
2020,05,27,06,40,8.60
2020,05,27,06,41,8.60
2020,05,27,06,42,8.60
2020,05,27,06,43,8.60
2020,05,27,06,44,8.70
2020,05,27,06,45,8.70
2020,05,27,06,46,8.80
2020,05,27,06,47,8.80
2020,05,27,06,48,8.80
2020,05,27,06,49,8.80
2020,05,27,06,50,8.90
2020,05,27,06,51,8.90
2020,05,27,06,52,8.90
2020,05,27,06,53,8.90
2020,05,27,06,54,8.90
2020,05,27,06,55,9.00
2020,05,27,06,56,9.00
2020,05,27,06,57,9.10
2020,05,27,06,58,9.10
2020,05,27,06,59,9.10
2020,05,27,07,00,9.20
2020,05,27,07,01,9.20
2020,05,27,07,02,9.30
2020,05,27,07,03,9.30
2020,05,27,07,04,9.30
2020,05,27,07,05,9.40
2020,05,27,07,06,9.40
2020,05,27,07,07,9.40
2020,05,27,07,08,9.40
2020,05,27,07,09,9.40
2020,05,27,07,10,9.40
2020,05,27,07,11,9.50
2020,05,27,07,12,9.50
2020,05,27,07,13,9.50
2020,05,27,07,14,9.50
2020,05,27,07,15,9.50
2020,05,27,07,16,9.60
2020,05,27,07,17,9.60
2020,05,27,07,18,9.60
2020,05,27,07,19,9.70
2020,05,27,07,20,9.70
2020,05,27,07,21,9.70
2020,05,27,07,22,9.70
2020,05,27,07,23,9.80
2020,05,27,07,24,9.80
2020,05,27,07,25,9.80
2020,05,27,07,26,9.80
2020,05,27,07,27,9.80
2020,05,27,07,28,9.80
2020,05,27,07,29,9.90
2020,05,27,07,30,9.90
2020,05,27,07,31,9.90
2020,05,27,07,32,9.90
2020,05,27,07,33,9.90
2020,05,27,07,34,9.90
2020,05,27,07,35,10.00
2020,05,27,07,36,10.00
2020,05,27,07,37,10.00
2020,05,27,07,38,10.00
2020,05,27,07,39,10.10
2020,05,27,07,40,10.10
2020,05,27,07,41,10.10
2020,05,27,07,42,10.10
2020,05,27,07,43,10.10
2020,05,27,07,44,10.10
2020,05,27,07,45,10.20
2020,05,27,07,46,10.20
2020,05,27,07,47,10.20
2020,05,27,07,48,10.20
2020,05,27,07,49,10.20
2020,05,27,07,50,10.20
2020,05,27,07,51,10.20
2020,05,27,07,52,10.20
2020,05,27,07,53,10.30
2020,05,27,07,54,10.30
2020,05,27,07,55,10.30
2020,05,27,07,56,10.30
2020,05,27,07,57,10.30
2020,05,27,07,58,10.40
2020,05,27,07,59,10.40
2020,05,27,08,00,10.40
2020,05,27,08,01,10.40
2020,05,27,08,02,10.40
2020,05,27,08,03,10.40
2020,05,27,08,04,10.50
2020,05,27,08,05,10.40
2020,05,27,08,06,10.50
2020,05,27,08,07,10.50
2020,05,27,08,08,10.60
2020,05,27,08,09,10.60
2020,05,27,08,10,10.60
2020,05,27,08,11,10.60
2020,05,27,08,12,10.70
2020,05,27,08,13,10.70
2020,05,27,08,14,10.80
2020,05,27,08,15,10.80
2020,05,27,08,16,10.80
2020,05,27,08,17,10.90
2020,05,27,08,18,10.90
2020,05,27,08,19,11.00
2020,05,27,08,20,11.00
2020,05,27,08,21,11.10
2020,05,27,08,22,11.10
2020,05,27,08,23,11.20
2020,05,27,08,24,11.20
2020,05,27,08,25,11.30
2020,05,27,08,26,11.30
2020,05,27,08,27,11.30
2020,05,27,08,28,11.30
2020,05,27,08,29,11.40
2020,05,27,08,30,11.40
2020,05,27,08,31,11.50
2020,05,27,08,32,11.50
2020,05,27,08,33,11.60
2020,05,27,08,34,11.70
2020,05,27,08,35,11.80
2020,05,27,08,36,11.90
2020,05,27,08,37,12.00
2020,05,27,08,38,12.10
2020,05,27,08,39,12.20
2020,05,27,08,40,12.20
2020,05,27,08,41,12.30
2020,05,27,08,42,12.40
2020,05,27,08,43,12.40
2020,05,27,08,44,12.50
2020,05,27,08,45,12.50
2020,05,27,08,46,12.60
2020,05,27,08,47,12.70
2020,05,27,08,48,12.80
2020,05,27,08,49,12.80
2020,05,27,08,50,12.90
2020,05,27,08,51,13.00
2020,05,27,08,52,13.00
2020,05,27,08,53,13.10
2020,05,27,08,54,13.20
2020,05,27,08,55,13.30
2020,05,27,08,56,13.30
2020,05,27,08,57,13.40
2020,05,27,08,58,13.40
2020,05,27,08,59,13.40
2020,05,27,09,00,13.50
2020,05,27,09,01,13.50
2020,05,27,09,02,13.60
2020,05,27,09,03,13.60
2020,05,27,09,04,13.60
2020,05,27,09,05,13.70
2020,05,27,09,06,13.70
2020,05,27,09,07,13.80
2020,05,27,09,08,13.80
2020,05,27,09,09,13.90
2020,05,27,09,10,13.90
2020,05,27,09,11,13.90
2020,05,27,09,12,14.00
2020,05,27,09,13,14.00
2020,05,27,09,14,14.00
2020,05,27,09,15,14.10
2020,05,27,09,16,14.10
2020,05,27,09,17,14.10
2020,05,27,09,18,14.10
2020,05,27,09,19,14.20
2020,05,27,09,20,14.20
2020,05,27,09,21,14.20
2020,05,27,09,22,14.20
2020,05,27,09,23,14.30
2020,05,27,09,24,14.30
2020,05,27,09,25,14.30
2020,05,27,09,26,14.30
2020,05,27,09,27,14.30
2020,05,27,09,28,14.30
2020,05,27,09,29,14.30
2020,05,27,09,30,14.30
2020,05,27,09,31,14.40
2020,05,27,09,32,14.40
2020,05,27,09,33,14.40
2020,05,27,09,34,14.40
2020,05,27,09,35,14.40
2020,05,27,09,36,14.40
2020,05,27,09,37,14.40
2020,05,27,09,38,14.50
2020,05,27,09,39,14.50
2020,05,27,09,40,14.50
2020,05,27,09,41,14.60
2020,05,27,09,42,14.60
2020,05,27,09,43,14.60
2020,05,27,09,44,14.70
2020,05,27,09,45,14.70
2020,05,27,09,46,14.70
2020,05,27,09,47,14.80
2020,05,27,09,48,14.80
2020,05,27,09,49,14.80
2020,05,27,09,50,14.80
2020,05,27,09,51,14.90
2020,05,27,09,52,14.90
2020,05,27,09,53,14.90
2020,05,27,09,54,14.90
2020,05,27,09,55,14.90
2020,05,27,09,56,15.00
2020,05,27,09,57,15.00
2020,05,27,09,58,15.00
2020,05,27,09,59,15.10
2020,05,27,10,00,15.10
2020,05,27,10,01,15.00
2020,05,27,10,02,15.00
2020,05,27,10,03,15.10
2020,05,27,10,04,15.10
2020,05,27,10,05,15.10
2020,05,27,10,06,15.10
2020,05,27,10,07,15.10
2020,05,27,10,08,15.10
2020,05,27,10,09,15.10
2020,05,27,10,10,15.10
2020,05,27,10,11,15.20
2020,05,27,10,12,15.20
2020,05,27,10,13,15.30
2020,05,27,10,14,15.30
2020,05,27,10,15,15.40
2020,05,27,10,16,15.40
2020,05,27,10,17,15.50
2020,05,27,10,18,15.60
2020,05,27,10,19,15.60
2020,05,27,10,20,15.70
2020,05,27,10,21,15.70
2020,05,27,10,22,15.70
2020,05,27,10,23,15.80
2020,05,27,10,24,15.80
2020,05,27,10,25,15.80
2020,05,27,10,26,15.80
2020,05,27,10,27,15.80
2020,05,27,10,28,15.80
2020,05,27,10,29,15.80
2020,05,27,10,30,15.80
2020,05,27,10,31,15.80
2020,05,27,10,32,15.90
2020,05,27,10,33,15.90
2020,05,27,10,34,16.00
2020,05,27,10,35,16.10
2020,05,27,10,36,16.10
2020,05,27,10,37,16.20
2020,05,27,10,38,16.20
2020,05,27,10,39,16.20
2020,05,27,10,40,16.20
2020,05,27,10,41,16.10
2020,05,27,10,42,16.00
2020,05,27,10,43,16.00
2020,05,27,10,44,16.00
2020,05,27,10,45,16.00
2020,05,27,10,46,16.00
2020,05,27,10,47,16.00
2020,05,27,10,48,16.10
2020,05,27,10,49,16.10
2020,05,27,10,50,16.10
2020,05,27,10,51,16.10
2020,05,27,10,52,16.10
2020,05,27,10,53,16.10
2020,05,27,10,54,16.10
2020,05,27,10,55,16.20
2020,05,27,10,56,16.20
2020,05,27,10,57,16.20
2020,05,27,10,58,16.10
2020,05,27,10,59,16.10
2020,05,27,11,00,16.10
2020,05,27,11,01,16.10
2020,05,27,11,02,16.10
2020,05,27,11,03,16.10
2020,05,27,11,04,16.10
2020,05,27,11,05,16.10
2020,05,27,11,06,16.10
2020,05,27,11,07,16.20
2020,05,27,11,08,16.20
2020,05,27,11,09,16.20
2020,05,27,11,10,16.20
2020,05,27,11,11,16.10
2020,05,27,11,12,16.10
2020,05,27,11,13,16.20
2020,05,27,11,14,16.20
2020,05,27,11,15,16.20
2020,05,27,11,16,16.20
2020,05,27,11,17,16.30
2020,05,27,11,18,16.30
2020,05,27,11,19,16.40
2020,05,27,11,20,16.50
2020,05,27,11,21,16.60
2020,05,27,11,22,16.70
2020,05,27,11,23,16.80
2020,05,27,11,24,16.80
2020,05,27,11,25,16.80
2020,05,27,11,26,16.80
2020,05,27,11,27,16.90
2020,05,27,11,28,16.90
2020,05,27,11,29,17.00
2020,05,27,11,30,17.10
2020,05,27,11,31,17.20
2020,05,27,11,32,17.30
2020,05,27,11,33,17.30
2020,05,27,11,34,17.40
2020,05,27,11,35,17.40
2020,05,27,11,36,17.40
2020,05,27,11,37,17.40
2020,05,27,11,38,17.50
2020,05,27,11,39,17.50
2020,05,27,11,40,17.50
2020,05,27,11,41,17.50
2020,05,27,11,42,17.50
2020,05,27,11,43,17.50
2020,05,27,11,44,17.50
2020,05,27,11,45,17.50
2020,05,27,11,46,17.40
2020,05,27,11,47,17.40
2020,05,27,11,48,17.40
2020,05,27,11,49,17.30
2020,05,27,11,50,17.20
2020,05,27,11,51,17.20
2020,05,27,11,52,17.20
2020,05,27,11,53,17.10
2020,05,27,11,54,17.10
2020,05,27,11,55,17.10
2020,05,27,11,56,17.10
2020,05,27,11,57,17.10
2020,05,27,11,58,17.10
2020,05,27,11,59,17.10
2020,05,27,12,00,17.10
2020,05,27,12,01,17.10
2020,05,27,12,02,17.00
2020,05,27,12,03,17.00
2020,05,27,12,04,17.00
2020,05,27,12,05,17.00
2020,05,27,12,06,17.10
2020,05,27,12,07,17.10
2020,05,27,12,08,17.10
2020,05,27,12,09,17.10
2020,05,27,12,10,17.20
2020,05,27,12,11,17.30
2020,05,27,12,12,17.30
2020,05,27,12,13,17.40
2020,05,27,12,14,17.50
2020,05,27,12,15,17.60
2020,05,27,12,16,17.70
2020,05,27,12,17,17.80
2020,05,27,12,18,17.80
2020,05,27,12,19,17.90
2020,05,27,12,20,18.00
2020,05,27,12,21,18.00
2020,05,27,12,22,18.10
2020,05,27,12,23,18.20
2020,05,27,12,24,18.30
2020,05,27,12,25,18.30
2020,05,27,12,26,18.30
2020,05,27,12,27,18.30
2020,05,27,12,28,18.40
2020,05,27,12,29,18.40
2020,05,27,12,30,18.40
2020,05,27,12,31,18.40
2020,05,27,12,32,18.40
2020,05,27,12,33,18.50
2020,05,27,12,34,18.50
2020,05,27,12,35,18.50
2020,05,27,12,36,18.60
2020,05,27,12,37,18.60
2020,05,27,12,38,18.70
2020,05,27,12,39,18.80
2020,05,27,12,40,18.80
2020,05,27,12,41,18.90
2020,05,27,12,42,18.90
2020,05,27,12,43,18.90
2020,05,27,12,44,18.90
2020,05,27,12,45,19.00
2020,05,27,12,46,19.00
2020,05,27,12,47,19.10
2020,05,27,12,48,19.10
2020,05,27,12,49,19.10
2020,05,27,12,50,19.20
2020,05,27,12,51,19.20
2020,05,27,12,52,19.30
2020,05,27,12,53,19.30
2020,05,27,12,54,19.40
2020,05,27,12,55,19.40
2020,05,27,12,56,19.40
2020,05,27,12,57,19.30
2020,05,27,12,58,19.30
2020,05,27,12,59,19.20
2020,05,27,13,00,19.20
2020,05,27,13,01,19.20
2020,05,27,13,02,19.20
2020,05,27,13,03,19.20
2020,05,27,13,04,19.20
2020,05,27,13,05,19.20
2020,05,27,13,06,19.20
2020,05,27,13,07,19.30
2020,05,27,13,08,19.30
2020,05,27,13,09,19.20
2020,05,27,13,10,19.10
2020,05,27,13,11,19.00
2020,05,27,13,12,18.80
2020,05,27,13,13,18.80
2020,05,27,13,14,18.70
2020,05,27,13,15,18.70
2020,05,27,13,16,18.60
2020,05,27,13,17,18.60
2020,05,27,13,18,18.50
2020,05,27,13,19,18.50
2020,05,27,13,20,18.40
2020,05,27,13,21,18.40
2020,05,27,13,22,18.40
2020,05,27,13,23,18.40
2020,05,27,13,24,18.40
2020,05,27,13,25,18.40
2020,05,27,13,26,18.40
2020,05,27,13,27,18.50
2020,05,27,13,28,18.50
2020,05,27,13,29,18.50
2020,05,27,13,30,18.60
2020,05,27,13,31,18.60
2020,05,27,13,32,18.70
2020,05,27,13,33,18.80
2020,05,27,13,34,18.80
2020,05,27,13,35,18.90
2020,05,27,13,36,18.90
2020,05,27,13,37,18.90
2020,05,27,13,38,19.00
2020,05,27,13,39,19.00
2020,05,27,13,40,19.00
2020,05,27,13,41,19.10
2020,05,27,13,42,19.10
2020,05,27,13,43,19.10
2020,05,27,13,44,19.10
2020,05,27,13,45,19.10
2020,05,27,13,46,19.10
2020,05,27,13,47,19.20
2020,05,27,13,48,19.20
2020,05,27,13,49,19.20
2020,05,27,13,50,19.20
2020,05,27,13,51,19.10
2020,05,27,13,52,19.10
2020,05,27,13,53,19.10
2020,05,27,13,54,19.10
2020,05,27,13,55,19.20
2020,05,27,13,56,19.20
2020,05,27,13,57,19.30
2020,05,27,13,58,19.40
2020,05,27,13,59,19.40
2020,05,27,14,00,19.50
2020,05,27,14,01,19.60
2020,05,27,14,02,19.60
2020,05,27,14,03,19.70
2020,05,27,14,04,19.70
2020,05,27,14,05,19.80
2020,05,27,14,06,19.70
2020,05,27,14,07,19.70
2020,05,27,14,08,19.70
2020,05,27,14,09,19.70
2020,05,27,14,10,19.80
2020,05,27,14,11,19.80
2020,05,27,14,12,19.90
2020,05,27,14,13,19.90
2020,05,27,14,14,19.90
2020,05,27,14,15,19.90
2020,05,27,14,16,19.90
2020,05,27,14,17,19.90
2020,05,27,14,18,20.00
2020,05,27,14,19,20.00
2020,05,27,14,20,20.00
2020,05,27,14,21,20.10
2020,05,27,14,22,20.10
2020,05,27,14,23,20.10
2020,05,27,14,24,20.10
2020,05,27,14,25,20.20
2020,05,27,14,26,20.20
2020,05,27,14,27,20.10
2020,05,27,14,28,20.00
2020,05,27,14,29,20.00
2020,05,27,14,30,19.90
2020,05,27,14,31,19.80
2020,05,27,14,32,19.80
2020,05,27,14,33,19.80
2020,05,27,14,34,19.80
2020,05,27,14,35,19.80
2020,05,27,14,36,19.70
2020,05,27,14,37,19.70
2020,05,27,14,38,19.70
2020,05,27,14,39,19.70
2020,05,27,14,40,19.70
2020,05,27,14,41,19.70
2020,05,27,14,42,19.70
2020,05,27,14,43,19.70
2020,05,27,14,44,19.80
2020,05,27,14,45,19.80
2020,05,27,14,46,19.80
2020,05,27,14,47,19.90
2020,05,27,14,48,19.90
2020,05,27,14,49,20.00
2020,05,27,14,50,20.00
2020,05,27,14,51,20.10
2020,05,27,14,52,20.20
2020,05,27,14,53,20.30
2020,05,27,14,54,20.30
2020,05,27,14,55,20.30
2020,05,27,14,56,20.40
2020,05,27,14,57,20.50
2020,05,27,14,58,20.60
2020,05,27,14,59,20.60
2020,05,27,15,00,20.70
2020,05,27,15,01,20.70
2020,05,27,15,02,20.70
2020,05,27,15,03,20.80
2020,05,27,15,04,20.90
2020,05,27,15,05,20.90
2020,05,27,15,06,20.90
2020,05,27,15,07,21.00
2020,05,27,15,08,20.90
2020,05,27,15,09,20.90
2020,05,27,15,10,20.90
2020,05,27,15,11,20.90
2020,05,27,15,12,20.90
2020,05,27,15,13,20.90
2020,05,27,15,14,21.00
2020,05,27,15,15,21.00
2020,05,27,15,16,21.00
2020,05,27,15,17,21.00
2020,05,27,15,18,21.00
2020,05,27,15,19,21.00
2020,05,27,15,20,21.10
2020,05,27,15,21,21.20
2020,05,27,15,22,21.20
2020,05,27,15,23,21.30
2020,05,27,15,24,21.40
2020,05,27,15,25,21.40
2020,05,27,15,26,21.40
2020,05,27,15,27,21.50
2020,05,27,15,28,21.50
2020,05,27,15,29,21.50
2020,05,27,15,30,21.60
2020,05,27,15,31,21.60
2020,05,27,15,32,21.60
2020,05,27,15,33,21.60
2020,05,27,15,34,21.50
2020,05,27,15,35,21.50
2020,05,27,15,36,21.50
2020,05,27,15,37,21.50
2020,05,27,15,38,21.50
2020,05,27,15,39,21.50
2020,05,27,15,40,21.50
2020,05,27,15,41,21.50
2020,05,27,15,42,21.50
2020,05,27,15,43,21.60
2020,05,27,15,44,21.60
2020,05,27,15,45,21.60
2020,05,27,15,46,21.60
2020,05,27,15,47,21.60
2020,05,27,15,48,21.60
2020,05,27,15,49,21.50
2020,05,27,15,50,21.50
2020,05,27,15,51,21.50
2020,05,27,15,52,21.40
2020,05,27,15,53,21.40
2020,05,27,15,54,21.40
2020,05,27,15,55,21.50
2020,05,27,15,56,21.50
2020,05,27,15,57,21.50
2020,05,27,15,58,21.50
2020,05,27,15,59,21.50
2020,05,27,16,00,21.50
2020,05,27,16,01,21.50
2020,05,27,16,02,21.50
2020,05,27,16,03,21.50
2020,05,27,16,04,21.50
2020,05,27,16,05,21.50
2020,05,27,16,06,21.50
2020,05,27,16,07,21.50
2020,05,27,16,08,21.50
2020,05,27,16,09,21.60
2020,05,27,16,10,21.50
2020,05,27,16,11,21.50
2020,05,27,16,12,21.50
2020,05,27,16,13,21.50
2020,05,27,16,14,21.50
2020,05,27,16,15,21.50
2020,05,27,16,16,21.50
2020,05,27,16,17,21.60
2020,05,27,16,18,21.60
2020,05,27,16,19,21.70
2020,05,27,16,20,21.70
2020,05,27,16,21,21.80
2020,05,27,16,22,21.80
2020,05,27,16,23,21.90
2020,05,27,16,24,21.90
2020,05,27,16,25,21.90
2020,05,27,16,26,21.90
2020,05,27,16,27,21.90
2020,05,27,16,28,21.80
2020,05,27,16,29,21.80
2020,05,27,16,30,21.80
2020,05,27,16,31,21.80
2020,05,27,16,32,21.80
2020,05,27,16,33,21.80
2020,05,27,16,34,21.80
2020,05,27,16,35,21.80
2020,05,27,16,36,21.80
2020,05,27,16,37,21.90
2020,05,27,16,38,21.90
2020,05,27,16,39,21.90
2020,05,27,16,40,22.00
2020,05,27,16,41,22.10
2020,05,27,16,42,22.10
2020,05,27,16,43,22.20
2020,05,27,16,44,22.20
2020,05,27,16,45,22.30
2020,05,27,16,46,22.40
2020,05,27,16,47,22.50
2020,05,27,16,48,22.60
2020,05,27,16,49,22.60
2020,05,27,16,50,22.70
2020,05,27,16,51,22.80
2020,05,27,16,52,22.80
2020,05,27,16,53,22.80
2020,05,27,16,54,22.80
2020,05,27,16,55,22.90
2020,05,27,16,56,23.00
2020,05,27,16,57,23.00
2020,05,27,16,58,23.10
2020,05,27,16,59,23.10
2020,05,27,17,00,23.20
2020,05,27,17,01,23.20
2020,05,27,17,02,23.30
2020,05,27,17,03,23.30
2020,05,27,17,04,23.30
2020,05,27,17,05,23.40
2020,05,27,17,06,23.40
2020,05,27,17,07,23.40
2020,05,27,17,08,23.40
2020,05,27,17,09,23.30
2020,05,27,17,10,23.20
2020,05,27,17,11,23.20
2020,05,27,17,12,23.10
2020,05,27,17,13,23.10
2020,05,27,17,14,23.10
2020,05,27,17,15,23.10
2020,05,27,17,16,23.10
2020,05,27,17,17,23.10
2020,05,27,17,18,23.10
2020,05,27,17,19,23.20
2020,05,27,17,20,23.20
2020,05,27,17,21,23.30
2020,05,27,17,22,23.30
2020,05,27,17,23,23.40
2020,05,27,17,24,23.40
2020,05,27,17,25,23.40
2020,05,27,17,26,23.40
2020,05,27,17,27,23.50
2020,05,27,17,28,23.50
2020,05,27,17,29,23.60
2020,05,27,17,30,23.60
2020,05,27,17,31,23.60
2020,05,27,17,32,23.60
2020,05,27,17,33,23.60
2020,05,27,17,34,23.60
2020,05,27,17,35,23.60
2020,05,27,17,36,23.60
2020,05,27,17,37,23.60
2020,05,27,17,38,23.60